Regional Weather Roundup
Issued by NWS Grand Forks, ND

Home | Current Version | Previous Version | Text Only | Print | Product List | Glossary Off
Versions: 1 2 3 4 5 6 7 8 9 10 11 12 13 14 15 16 17 18 19 20 21 22 23 24 25 26 27 28 29 30 31 32 33 34 35 36 37 38 39 40 41 42 43 44 45 46 47 48 49 50

000
ASUS43 KFGF 231131
RWRFGF
PRAIRIE TO PINES  WEATHER ROUNDUP
NATIONAL WEATHER SERVICE EASTERN NORTH DAKOTA/GRAND FORKS ND
500 AM CST MON JAN 23 2017

 **SATELLITE DATA USED TO AUGMENT SKY COVER AT AUTOMATED STATIONS**
 *****  WEATHER ACROSS EASTERN NORTH DAKOTA  *****

CITY           SKY/WX    TMP DP  RH WIND       PRES   REMARKS
GRAND FORKS    CLOUDY    33  27  78 W8        29.78R
GRAND FRKS AFB CLOUDY    32  27  82 W10       29.77S WCI  23
DEVILS LAKE    CLOUDY    29  26  89 W14       29.77S WCI  18
FARGO          CLOUDY    35  27  72 W9        29.81R
WAHPETON ARPT  CLOUDY    32  28  86 W6        29.83S
$$

 ***** WEATHER ACROSS CENTRAL AND WESTERN NORTH DAKOTA  *****

CITY           SKY/WX    TMP DP  RH WIND       PRES   REMARKS
BISMARCK       CLOUDY    30  23  75 W5        29.81S
MINOT          CLOUDY    28  22  78 NW9       29.76F WCI  19
JAMESTOWN      CLOUDY    30  25  81 NW9       29.77F WCI  22
MINOT AFB      CLOUDY    26  22  83 NW10      29.75S WCI  16
GARRISON         N/A     27  22  81 NW7       29.76F WCI  19
WILLISTON      CLOUDY    27  24  89 CALM      29.77S
DICKINSON      CLOUDY    24  19  81 CALM      29.73F
HETTINGER      FOG       22  21  96 E6        29.75F VSB 1/2 WCI  14
$$

 *****  OTHER AIRPORT OBSERVATIONS IN OUR AREA  *****

CITY           SKY/WX    TMP DP  RH WIND       PRES   REMARKS
WALHALLA       NOT AVBL
GRAFTON AIRPOR CLOUDY    32  32 100 W7        29.78S
VALLEY CITY AR CLOUDY    32  30  93 W7        29.80F
CANDO          NOT AVBL
CAVALIER APRT  CLOUDY    32  28  86 SW5       29.75S
GWINNER        CLOUDY    32  30  93 NW12      29.82S WCI  23
SHEYENNE NWR     N/A     33  27  78 NW6       29.95S
ROLLA            N/A    N/A N/A N/A MISG        N/A
 ***** THE ABOVE OBSERVATIONS ARE NON NWS ARE NOT QUALITY
       CONTROLLED AND MAY MIS-REPORT RAIN FOR SNOW...
$$

  *****  WEATHER ACROSS NORTHERN MINNESOTA  *****

CITY           SKY/WX    TMP DP  RH WIND       PRES   REMARKS
FLAG ISLAND    DRIZZLE   32  30  93 CALM      29.72S
WARROAD        CLOUDY    32  28  86 SW5       29.74R FOG
ROSEAU         FAIR      34  28  80 CALM      29.74S HAZE
HALLOCK        CLOUDY    32  30  93 SW6       29.75S
THF RVR FALLS  CLOUDY    30  29  96 SW8       29.77S WCI  22
BAUDETTE       CLOUDY    32  31  96 S3        29.74R FOG
WASKISH        CLOUDY    32  30  93 CALM      29.76R FOG
CROOKSTON      CLOUDY    32  28  86 W8        29.79S WCI  25
STEPHEN NDAWN    N/A     30  28  93 SW6         N/A  WCI  24
GREENBUSH NDAW   N/A     30  30 100 SW3         N/A
$$
  *****  WEATHER ACROSS CENTRAL AND WEST MINNESOTA  *****

CITY           SKY/WX    TMP DP  RH WIND       PRES   REMARKS
FOSSTON        CLOUDY    28  28 100 SW7       29.78R WCI  21
BEMIDJI        CLOUDY    30  29  96 SW5       29.77R
PARK RAPIDS    CLOUDY    31  27  85 W7        29.77R WCI  24
ELBOW LAKE     CLOUDY    31  30  95 NW7       29.82R FOG     WCI  24
WADENA         CLOUDY    28  28 100 NW7       29.79R WCI  21
DETROIT LAKES  MOCLDY    32  30  93 W5        29.80S
MOORHEAD       CLOUDY    34  27  75 NW10      29.82S
FERGUS FALLS   CLOUDY    30  30 100 NW5       29.86S
MORRIS MN      CLOUDY    34  28  80 NW16      29.82R WCI  23
STAPLES        CLOUDY    28  28 100 W9        29.79R WCI  20
$$
  *****  WEATHER ELSEWHERE ACROSS MINNESOTA  *****

CITY           SKY/WX    TMP DP  RH WIND       PRES   REMARKS
DULUTH         DRIZZLE   34  34 100 NW6       29.74S FOG
INTRNTL FALLS  FOG       33  32  96 SW3       29.74S VSB 1/2
ELY            LGT SNOW  32  32 100 CALM      29.74S
CLOQUET        CLOUDY    34  34 100 W3        29.75F FOG
WHEATON        CLOUDY    39  36  87 W9        29.85S
BRAINERD       CLOUDY    32  32 100 W5        29.78S FOG
HIBBING        CLOUDY    32  32 100 CALM      29.75S
ALEXANDRIA     CLOUDY    31  29  92 NW7       29.80S WCI  24
SAINT CLOUD    CLOUDY    32  32 100 W7        29.80R FOG
MINNEAPOLIS    DRIZZLE   34  32  92 W3        29.81S FOG
$$

  *****  WEATHER ACROSS SOUTH DAKOTA  *****

CITY           SKY/WX    TMP DP  RH WIND       PRES   REMARKS
SIOUX FALLS    CLOUDY    31  29  92 NW8       29.85S WCI  23
BROOKINGS      CLOUDY    29  27  92 N8        29.82F WCI  21
WATERTOWN      CLOUDY    29  26  89 N7        29.81S WCI  22
HURON          CLOUDY    29  26  89 NW6       29.84F WCI  23
SISSETON         N/A     33  29  85 NW9       29.82S
ABERDEEN       CLOUDY    30  24  78 NW5       29.84R
MITCHELL       CLOUDY    31  26  82 NW7       29.87S WCI  24
PIERRE         CLOUDY    27  22  81 E3        29.82F
MOBRIDGE       CLOUDY    29  23  78 CALM      29.78F
RAPID CITY     FAIR      22  20  92 CALM      29.69F
$$

  *****  SOME WEATHER IN NEARBY STATES *****

CITY           SKY/WX    TMP DP  RH WIND       PRES   REMARKS
GLASGOW MT     CLOUDY    27  24  89 S7        29.74F WCI  19
GREAT FALLS MT CLOUDY    22  20  92 W6        29.70R WCI  14
CHEYENNE WY    CLOUDY    26  13  57 CALM      29.66F
SCOTTSBLUFF NE CLOUDY    27  21  78 E5        29.72F WCI  22
OMAHA NE       CLOUDY    32  26  78 N10       29.89F WCI  24
DES MOINES IA  CLOUDY    33  30  88 NW10      29.86S WCI  25
DAVENPORT IA   CLOUDY    35  33  92 NW7       29.78S
CHICAGO IL     CLOUDY    37  35  92 N9        29.73R
EAU CLAIRE WI  FOG       34  34 100 W7        29.77F VSB 1/2
LA CROSSE WI   CLOUDY    38  34  85 W7        29.79S
$$

  *****  SOME NATIONAL WEATHER *****

CITY           SKY/WX    TMP DP  RH WIND       PRES   REMARKS
LA GUARDIA NY  CLOUDY    43  35  73 E35G44    29.84S
RALEIGH NC     CLOUDY    54  52  93 SE6       29.21S
ATLANTA GA     CLOUDY    49  48  97 N12       29.23R
NEW ORLEANS LA CLOUDY    57  48  72 NW13G25   29.72R
OKLAHOMA CITY  FAIR      30  27  88 CALM      29.93F
ALBUQUERQUE NM MOCLDY    34  31  88 CALM      30.01F
SALT LAKE CITY CLOUDY    38  32  79 SE20G29   29.57F
LOS ANGELES CA MOCLDY    55  47  74 W18       29.89F
BOISE ID       CLOUDY    28  26  92 CALM      29.60F
SEATTLE WA     CLOUDY    37  33  85 W5        29.65R
$$

*** WEATHER ACROSS MANITOBA...SASKATCHEWAN AND ONTARIO ***
                ***ONTARIO***

CITY           SKY/WX    TMP DP  RH WIND       PRES   REMARKS
GERALDTON      LGT SNOW  32  32 100 E3        29.72S VSB 3/4
THUNDER BAY    CLOUDY    34  34 100 W3        29.74S
SIOUX LOOKOUT  FLURRIES  30  30 100 CALM      29.73S
TORONTO        CLOUDY    36  34  93 E12       29.77R
BIG TROUT LK   LGT SNOW  25  25 100 E5        29.81  WCI  19
PICKLE LAKE    LGT SNOW  28  27  93 E3        29.73
DRYDEN         FOG       32  32 100 SE3       29.72R VSB 3/4
KENORA         FOG       32  32 100 SE3       29.70F VSB 1/4
$$
                *** MANITOBA***

CITY           SKY/WX    TMP DP  RH WIND       PRES   REMARKS
BRANDON        CLOUDY    25  21  86 W14       29.71S WCI  13
DAUPHIN        FLURRIES  28  25  86 W14       29.68S WCI  17
ISLAND LAKE    LGT SNOW  28  28 100 VRB2      29.75F
PILOT MOUND      N/A     27  25  93 W7          N/A  WCI  19
THE PAS        LGT SNOW  27  25  93 N8        29.77S WCI  18
THOMPSON       FLURRIES  18  14  86 NE12G18   29.87S WCI   5
WINNIPEG       CLOUDY    30  28  93 SW7       29.72S WCI  23
LYNN LAKE      LGT SNOW   7   5  92 NE9       29.92F WCI  -7
CHURCHILL      CLOUDY    18  18 100 NE16      30.03S FOG     WCI   3
GILLAM         LGT SNOW  23  21  93 NE12      29.88S WCI  12
$$
                ***SASKATCHEWAN***

CITY           SKY/WX    TMP DP  RH WIND       PRES   REMARKS
ESTEVAN        FLURRIES  21  19  93 NW10      29.75F WCI  10
KINDERSLEY     CRYSTALS   9   7  92 NW7       29.79F WCI  -3
LLOYDMINSTER   LGT SNOW  10   9  92 N9        29.84S WCI  -2
PRINCE ALBERT  LGT SNOW  18  14  86 N9        29.80S WCI   6
REGINA         CLOUDY    18  16  93 NW12      29.75F WCI   5
YORKTON        FLURRIES  23  19  86 NW9       29.69F WCI  13
N. BATTLEFORD  LGT SNOW  10  10 100 NW8       29.85S WCI  -1
LA RONGE       FLURRIES  12   9  85 N6        29.90R WCI   3
SASKATOON      FLURRIES  14  10  85 N10       29.82S WCI   1
SWIFT CURRENT  CLOUDY    16  14  93 NW8       29.73F WCI   5
$$
NOTE: THESE ARE AUTOMATED STATIONS WITH LIMITED QUALITY CONTROL
      "FAIR" INDICATES FEW OR NO CLOUDS BELOW 12,000 FEET WITH NO
      SIGNIFICANT WEATHER AND/OR OBSTRUCTIONS TO VISIBILITY.
      SKY/WX - SKY CONDITION AND SIGNIFICANT WEATHER.
      TMP - AIR TEMPERATURE.    DP   - DEWPOINT TEMPERATURE.
      RH  - RELATIVE HUMIDITY.  PRES - PRESSURE.
      HX  - HEAT INDEX.         WCI  - WIND CHILL INDEX.
$




USA.gov is the U.S. government's official web portal to all federal, state and local government web resources and services.